TimeEST,TemperatureF,Dew PointF,Humidity,Sea Level PressureIn,VisibilityMPH,Wind Direction,Wind SpeedMPH,Gust SpeedMPH,PrecipitationIn,Events,Conditions,WindDirDegrees,DateUTC
12:15 AM,28.2,24.8,87,30.19,10.0,Calm,Calm,-,N/A,,Clear,0,2012-11-06 05:15:00
12:35 AM,27.5,24.4,88,30.18,10.0,Calm,Calm,-,N/A,,Clear,0,2012-11-06 05:35:00
12:55 AM,27.3,24.3,88,30.18,10.0,Calm,Calm,-,N/A,,Clear,0,2012-11-06 05:55:00
1:15 AM,25.7,23.0,89,30.18,7.0,Calm,Calm,-,N/A,,Clear,0,2012-11-06 06:15:00
1:35 AM,24.8,22.1,89,30.18,7.0,Calm,Calm,-,N/A,,Clear,0,2012-11-06 06:35:00
1:55 AM,25.2,22.6,90,30.18,10.0,Calm,Calm,-,N/A,,Clear,0,2012-11-06 06:55:00
2:15 AM,25.7,23.2,90,30.18,10.0,Calm,Calm,-,N/A,,Clear,0,2012-11-06 07:15:00
2:35 AM,26.4,23.9,90,30.18,7.0,Calm,Calm,-,N/A,,Clear,0,2012-11-06 07:35:00
2:55 AM,26.1,23.5,90,30.17,7.0,Calm,Calm,-,N/A,,Clear,0,2012-11-06 07:55:00
3:15 AM,25.7,23.2,90,30.17,7.0,Calm,Calm,-,N/A,,Clear,0,2012-11-06 08:15:00
3:35 AM,25.2,22.6,90,30.16,7.0,Calm,Calm,-,N/A,,Clear,0,2012-11-06 08:35:00
3:55 AM,24.8,22.5,91,30.16,7.0,Calm,Calm,-,N/A,,Clear,0,2012-11-06 08:55:00
4:15 AM,25.5,23.2,91,30.16,7.0,Calm,Calm,-,N/A,,Clear,0,2012-11-06 09:15:00
4:35 AM,25.2,22.8,91,30.16,7.0,Calm,Calm,-,N/A,,Clear,0,2012-11-06 09:35:00
4:55 AM,25.5,23.0,90,30.16,5.0,Calm,Calm,-,N/A,,Clear,0,2012-11-06 09:55:00
5:15 AM,25.0,22.6,91,30.16,7.0,Calm,Calm,-,N/A,,Clear,0,2012-11-06 10:15:00
5:35 AM,25.0,22.5,90,30.16,7.0,Calm,Calm,-,N/A,,Clear,0,2012-11-06 10:35:00
5:55 AM,24.6,22.3,91,30.16,7.0,Calm,Calm,-,N/A,,Clear,0,2012-11-06 10:55:00
6:15 AM,24.8,22.6,91,30.15,7.0,Calm,Calm,-,N/A,,Clear,0,2012-11-06 11:15:00
6:35 AM,23.7,21.4,91,30.16,7.0,Calm,Calm,-,N/A,,Clear,0,2012-11-06 11:35:00
6:55 AM,23.7,21.4,91,30.16,7.0,Calm,Calm,-,N/A,,Clear,0,2012-11-06 11:55:00
7:15 AM,23.7,21.4,91,30.17,7.0,Calm,Calm,-,N/A,,Clear,0,2012-11-06 12:15:00
7:35 AM,25.0,22.6,91,30.16,5.0,Calm,Calm,-,N/A,,Clear,0,2012-11-06 12:35:00
7:55 AM,26.6,24.1,90,30.17,5.0,Calm,Calm,-,N/A,,Clear,0,2012-11-06 12:55:00
8:15 AM,27.5,24.8,90,30.17,5.0,Calm,Calm,-,N/A,,Clear,0,2012-11-06 13:15:00
8:35 AM,29.1,25.9,88,30.17,5.0,Calm,Calm,-,N/A,,Clear,0,2012-11-06 13:35:00
8:55 AM,30.9,27.5,87,30.17,7.0,Calm,Calm,-,N/A,,Clear,0,2012-11-06 13:55:00
9:15 AM,32.9,28.6,84,30.17,7.0,Calm,Calm,-,N/A,,Clear,0,2012-11-06 14:15:00
9:35 AM,34.7,29.5,81,30.17,10.0,Calm,Calm,-,N/A,,Clear,0,2012-11-06 14:35:00
9:55 AM,36.7,29.5,75,30.16,10.0,Calm,Calm,-,N/A,,Clear,0,2012-11-06 14:55:00
10:15 AM,38.7,30.7,73,30.15,10.0,Calm,Calm,-,N/A,,Clear,0,2012-11-06 15:15:00
10:35 AM,39.9,28.6,64,30.15,10.0,Calm,Calm,-,N/A,,Clear,0,2012-11-06 15:35:00
10:55 AM,42.6,29.3,59,30.14,10.0,Calm,Calm,-,N/A,,Clear,0,2012-11-06 15:55:00
11:15 AM,44.4,29.1,55,30.13,10.0,Calm,Calm,-,N/A,,Clear,0,2012-11-06 16:15:00
11:35 AM,45.1,28.8,53,30.12,10.0,Calm,Calm,-,N/A,,Clear,0,2012-11-06 16:35:00
11:55 AM,45.3,28.2,51,30.10,10.0,Calm,Calm,-,N/A,,Clear,0,2012-11-06 16:55:00
12:15 PM,45.7,28.4,51,30.09,10.0,Calm,Calm,-,N/A,,Clear,0,2012-11-06 17:15:00
12:35 PM,46.0,27.9,49,30.07,10.0,Calm,Calm,-,N/A,,Clear,0,2012-11-06 17:35:00
12:55 PM,46.8,27.9,48,30.06,7.0,Calm,Calm,-,N/A,,Clear,0,2012-11-06 17:55:00
1:15 PM,46.6,27.7,48,30.05,10.0,Calm,Calm,-,N/A,,Clear,0,2012-11-06 18:15:00
1:35 PM,48.6,28.6,46,30.04,10.0,Calm,Calm,-,N/A,,Clear,0,2012-11-06 18:35:00
1:55 PM,49.1,27.3,43,30.04,10.0,Calm,Calm,-,N/A,,Clear,0,2012-11-06 18:55:00
2:15 PM,49.6,27.5,42,30.03,10.0,Calm,Calm,-,N/A,,Clear,0,2012-11-06 19:15:00
2:35 PM,50.0,28.4,43,30.02,10.0,Calm,Calm,-,N/A,,Clear,0,2012-11-06 19:35:00
2:55 PM,49.6,29.1,45,30.02,10.0,Calm,Calm,-,N/A,,Clear,0,2012-11-06 19:55:00
3:15 PM,50.4,28.8,43,30.01,10.0,Calm,Calm,-,N/A,,Clear,0,2012-11-06 20:15:00
3:35 PM,50.4,28.4,43,30.01,10.0,Calm,Calm,-,N/A,,Clear,0,2012-11-06 20:35:00
3:55 PM,50.0,28.4,43,30.01,10.0,Calm,Calm,-,N/A,,Clear,0,2012-11-06 20:55:00
4:15 PM,49.5,28.6,45,30.01,10.0,Calm,Calm,-,N/A,,Clear,0,2012-11-06 21:15:00
4:35 PM,48.6,27.7,44,30.02,10.0,Calm,Calm,-,N/A,,Clear,0,2012-11-06 21:35:00
4:55 PM,46.0,27.5,48,30.02,10.0,Calm,Calm,-,N/A,,Clear,0,2012-11-06 21:55:00
5:15 PM,44.4,27.3,51,30.02,10.0,Calm,Calm,-,N/A,,Clear,0,2012-11-06 22:15:00
5:35 PM,41.2,27.3,58,30.02,10.0,Calm,Calm,-,N/A,,Clear,0,2012-11-06 22:35:00
5:55 PM,41.5,26.4,55,30.02,10.0,Calm,Calm,-,N/A,,Clear,0,2012-11-06 22:55:00
6:15 PM,34.3,27.5,76,30.02,10.0,Calm,Calm,-,N/A,,Clear,0,2012-11-06 23:15:00
6:35 PM,33.3,27.3,79,30.02,10.0,Calm,Calm,-,N/A,,Clear,0,2012-11-06 23:35:00
6:55 PM,34.7,28.9,79,30.02,10.0,Calm,Calm,-,N/A,,Clear,0,2012-11-06 23:55:00
7:15 PM,32.9,27.7,81,30.03,10.0,Calm,Calm,-,N/A,,Clear,0,2012-11-07 00:15:00
7:35 PM,35.2,30.2,82,30.03,10.0,Calm,Calm,-,N/A,,Clear,0,2012-11-07 00:35:00
7:55 PM,35.6,28.9,77,30.03,10.0,Calm,Calm,-,N/A,,Clear,0,2012-11-07 00:55:00
8:15 PM,35.1,29.3,80,30.03,10.0,Calm,Calm,-,N/A,,Clear,0,2012-11-07 01:15:00
8:35 PM,35.2,30.2,82,30.03,10.0,Calm,Calm,-,N/A,,Clear,0,2012-11-07 01:35:00
8:55 PM,35.6,29.8,80,30.03,10.0,Calm,Calm,-,N/A,,Clear,0,2012-11-07 01:55:00
9:15 PM,32.4,27.7,83,30.03,10.0,Calm,Calm,-,N/A,,Clear,0,2012-11-07 02:15:00
9:35 PM,33.6,29.1,84,30.02,10.0,Calm,Calm,-,N/A,,Clear,0,2012-11-07 02:35:00
9:55 PM,32.0,27.9,85,30.03,10.0,Calm,Calm,-,N/A,,Clear,0,2012-11-07 02:55:00
10:15 PM,32.0,27.7,84,30.05,10.0,Calm,Calm,-,N/A,,Clear,0,2012-11-07 03:15:00
10:35 PM,32.0,27.9,85,30.04,10.0,Calm,Calm,-,N/A,,Clear,0,2012-11-07 03:35:00
10:55 PM,30.7,27.0,86,30.03,7.0,Calm,Calm,-,N/A,,Clear,0,2012-11-07 03:55:00
11:15 PM,31.1,27.9,88,30.02,10.0,Calm,Calm,-,N/A,,Clear,0,2012-11-07 04:15:00
11:35 PM,31.3,28.0,88,30.02,10.0,Calm,Calm,-,N/A,,Clear,0,2012-11-07 04:35:00
11:55 PM,31.3,27.1,85,30.02,10.0,Calm,Calm,-,N/A,,Clear,0,2012-11-07 04:55:00